User: anonymous   Login
Location: Unspecified
(0.0000°N, 0.0000°E)
Time: 05:17:50
(UTC+00:00)
Language:

SWAYAM - Orbit

View from above orbital plane
View from above orbital plane
View from above satellite
View from above satellite

Ground track
Ground track

The orbit data is extracted from the following two-line orbital elements,

1 41607U 16040J   19083.21101578  .00001153  00000-0  51917-4 0  9992
2 41607  97.3756 146.8388 0012816 342.5050  17.5744 15.23023392152716
Epoch (UTC): 24 March 2019 05:03:51
Eccentricity: 0.0012816
inclination: 97.3756°
perigee height: 488 km
apogee height: 505 km
right ascension of ascending node: 146.8388°
argument of perigee: 342.5050°
revolutions per day: 15.23023392
mean anomaly at epoch: 17.5744°
orbit number at epoch: 15271

The dashed part of the orbit path shows where the satellite is in the earth's shadow,  

DLR